Punta Gorda, FL

9:03 AM EDT on May 28, 2017 (GMT -0400)
Charlotte County

Weather History for KPGD - February, 2013

Change the Weather History Date:

Monday, February 25, 2013

  Actual Average Record
Temperature  
Mean Temperature 75 °F -  
Max Temperature 86 °F 75 °F 86 °F (2013)
Min Temperature 64 °F 53 °F 44 °F (2002)
Cooling Degree Days 10    
Growing Degree Days 25 (Base 50)    
Moisture  
Dew Point 66 °F    
Average Humidity 88    
Maximum Humidity 100    
Minimum Humidity 48    
Precipitation  
Precipitation 0.01 in - - ()
Sea Level Pressure  
Sea Level Pressure 29.89 in    
Wind  
Wind Speed 4 mph (SE)    
Max Wind Speed 20 mph    
Max Gust Speed 25 mph    
Visibility 5 miles    
Events Fog    
Averages and records for this station are not official NWS values.
T = Trace of Precipitation, MM = Missing Value Source: NWS Daily Summary

Daily Weather History Graph

Daily Weather History Graph

Search for Another Location

Airport or City:

Trip Planner

Search our weather history database for the weather conditions in past years. The results will help you decide how hot, cold, wet, or windy it might be!

Date:

Astronomy

Feb. 25, 2013 Rise Set
Actual Time 6:55 AM EST 6:26 PM EST
Civil Twilight 6:32 AM EST 6:50 PM EST
Nautical Twilight 6:05 AM EST 7:17 PM EST
Astronomical Twilight 5:38 AM EST 7:44 PM EST
Moon 6:32 PM EST (2/25) 6:28 AM EST (2/25)
Length of Visible Light 12h 18m
Length of Day
11h 31m
Full, 100% of the Moon is Illuminated
Feb 25
Full
Feb 25
Full
Mar 4
Last Quarter
Mar 11
New
Mar 19
First Quarter

Hourly Weather History & Observations

Time (EST) Temp. Heat Index Dew Point Humidity Pressure Visibility Wind Dir Wind Speed Gust Speed Precip Events Conditions
12:53 AM 69.1 °F - 68.0 °F 96% 29.93 in 0.5 mi ESE 3.5 mph - N/A Fog Fog
1:10 AM 69.8 °F - 69.8 °F 100% 29.92 in 1.0 mi Calm Calm - N/A   Mist
1:24 AM 69.8 °F - 68.0 °F 94% 29.92 in 1.5 mi Calm Calm - N/A   Overcast
1:30 AM 69.8 °F - 68.0 °F 94% 29.92 in 0.8 mi Calm Calm - N/A   Mist
1:53 AM 68.0 °F - 66.9 °F 96% 29.92 in 0.2 mi East 3.5 mph - N/A Fog Fog
2:06 AM 66.2 °F - 66.2 °F 100% 29.92 in 0.2 mi Calm Calm - N/A Fog Fog
2:18 AM 66.2 °F - 66.2 °F 100% 29.91 in 0.2 mi East 3.5 mph - N/A Fog Fog
2:27 AM 68.0 °F - 66.2 °F 94% 29.90 in 2.0 mi ESE 3.5 mph - N/A   Mostly Cloudy
2:30 AM 68.0 °F - 66.2 °F 94% 29.90 in 3.0 mi East 3.5 mph - N/A   Scattered Clouds
2:41 AM 66.2 °F - 66.2 °F 100% 29.91 in 1.8 mi NE 3.5 mph - N/A   Partly Cloudy
2:51 AM 66.2 °F - 66.2 °F 100% 29.91 in 3.0 mi ENE 4.6 mph - N/A   Clear
2:53 AM 66.9 °F - 66.0 °F 97% 29.91 in 3.0 mi ENE 3.5 mph - N/A   Clear
3:05 AM 66.2 °F - 64.4 °F 94% 29.90 in 1.8 mi ENE 3.5 mph - N/A   Clear
3:16 AM 66.2 °F - 64.4 °F 94% 29.90 in 3.0 mi Calm Calm - N/A   Clear
3:30 AM 64.4 °F - 64.4 °F 100% 29.88 in 2.5 mi ESE 4.6 mph - N/A   Clear
3:40 AM 66.2 °F - 64.4 °F 94% 29.88 in 4.0 mi SE 5.8 mph - N/A   Clear
3:53 AM 66.0 °F - 64.9 °F 96% 29.89 in 3.0 mi SSE 5.8 mph - N/A   Clear
4:53 AM 64.9 °F - 64.0 °F 97% 29.88 in 3.0 mi Calm Calm - N/A   Clear
4:57 AM 64.4 °F - 62.6 °F 94% 29.88 in 1.8 mi ESE 3.5 mph - N/A   Clear
5:11 AM 64.4 °F - 64.4 °F 100% 29.87 in 3.0 mi ESE 4.6 mph - 0.01 in   Clear
5:24 AM 64.4 °F - 64.4 °F 100% 29.88 in 1.8 mi Calm Calm - 0.01 in   Partly Cloudy
5:27 AM 64.4 °F - 62.6 °F 94% 29.88 in 0.8 mi Calm Calm - 0.01 in   Mist
5:43 AM 64.4 °F - 64.4 °F 100% 29.88 in 1.0 mi Calm Calm - 0.01 in   Mist
5:50 AM 64.4 °F - 64.4 °F 100% 29.88 in 0.5 mi Calm Calm - 0.01 in Fog Fog
5:53 AM 64.0 °F - 63.0 °F 96% 29.88 in 0.2 mi Calm Calm - 0.01 in Fog Fog
6:53 AM 64.9 °F - 64.0 °F 97% 29.89 in 0.2 mi SE 3.5 mph - N/A Fog Fog
7:37 AM 64.4 °F - 64.4 °F 100% 29.92 in 1.2 mi Calm Calm - N/A   Overcast
7:50 AM 66.2 °F - 64.4 °F 94% 29.91 in 3.0 mi Calm Calm - N/A   Overcast
7:51 AM 66.0 °F - 64.9 °F 96% 29.92 in 3.0 mi Calm Calm - N/A   Overcast
8:53 AM 71.1 °F - 69.1 °F 93% 29.93 in 9.0 mi SSE 4.6 mph - N/A   Scattered Clouds
9:53 AM 79.0 °F - 69.1 °F 72% 29.93 in 10.0 mi South 11.5 mph - N/A   Partly Cloudy
10:53 AM 82.0 °F 84.9 °F 68.0 °F 62% 29.91 in 10.0 mi SSE 6.9 mph - N/A   Scattered Clouds
11:53 AM 84.9 °F 87.6 °F 66.9 °F 55% 29.90 in 10.0 mi SSW 12.7 mph 19.6 mph N/A   Scattered Clouds
12:53 PM 84.0 °F 86.5 °F 66.9 °F 56% 29.88 in 10.0 mi SW 13.8 mph - N/A   Mostly Cloudy
1:53 PM 84.0 °F 87.0 °F 68.0 °F 58% 29.86 in 10.0 mi South 15.0 mph - N/A   Mostly Cloudy
2:53 PM 86.0 °F 88.8 °F 66.9 °F 53% 29.84 in 10.0 mi SSW 18.4 mph 24.2 mph N/A   Partly Cloudy
3:53 PM 86.0 °F 87.3 °F 64.0 °F 48% 29.83 in 10.0 mi SSW 19.6 mph 25.3 mph N/A   Partly Cloudy
4:53 PM 82.9 °F 84.6 °F 64.9 °F 54% 29.82 in 10.0 mi South 11.5 mph - N/A   Partly Cloudy
5:53 PM 81.0 °F 83.0 °F 66.0 °F 60% 29.83 in 10.0 mi South 11.5 mph - N/A   Scattered Clouds
6:53 PM 75.0 °F - 66.9 °F 76% 29.83 in 10.0 mi South 5.8 mph - N/A   Clear
7:53 PM 72.0 °F - 66.9 °F 84% 29.83 in 10.0 mi SSE 3.5 mph - N/A   Clear
8:53 PM 70.0 °F - 66.9 °F 90% 29.84 in 9.0 mi SSE 5.8 mph - N/A   Clear
9:53 PM 70.0 °F - 66.9 °F 90% 29.86 in 9.0 mi SSE 4.6 mph - N/A   Scattered Clouds
10:53 PM 71.1 °F - 68.0 °F 90% 29.85 in 9.0 mi SSE 8.1 mph - N/A   Partly Cloudy
11:53 PM 72.0 °F - 68.0 °F 87% 29.84 in 8.0 mi South 6.9 mph - N/A   Clear